Location: Eaton Estates
(41.3089°N, 82.0057°W)
Time: 03:01:48
(UTC+00:00)

Cosmos 1908 - Visible Passes

Search period start: 17 October 2021 00:00
Search period end: 27 October 2021 00:00
Orbit: 510 x 528 km, 82.5° (Epoch: 16 October)

Date Brightness Start Highest point End Pass type
(mag) Time Alt. Az. Time Alt. Az. Time Alt. Az.
17 Oct 3.5 00:00:40 10° SSW 00:04:31 70° W 00:08:24 10° N visible
17 Oct 6.3 09:57:13 10° NNE 09:59:47 17° ENE 10:02:18 10° ESE visible
17 Oct 3.2 23:46:41 10° S 23:50:34 84° W 23:54:27 10° N visible
18 Oct 6.4 09:43:35 10° NE 09:45:45 14° ENE 09:47:54 10° ESE visible
18 Oct 3.1 23:32:44 10° S 23:36:36 81° E 23:40:30 10° N visible
19 Oct 6.5 09:30:05 10° NE 09:31:44 12° ENE 09:33:21 10° E visible
19 Oct 3.5 11:04:08 10° NNW 11:07:45 42° W 11:11:21 10° SSW visible
19 Oct 3.2 23:18:49 10° S 23:22:40 67° E 23:26:31 10° NNE visible
20 Oct 6.7 09:16:57 10° ENE 09:17:41 10° ENE 09:18:25 10° E visible
20 Oct 3.3 10:50:06 10° NNW 10:53:49 51° W 10:57:30 10° S visible
20 Oct 3.3 23:04:55 10° S 23:08:42 55° E 23:12:31 10° NNE visible
21 Oct 6.8 00:44:25 10° WNW 00:44:51 10° WNW 00:45:17 10° WNW visible
21 Oct 3.1 10:36:05 10° NNW 10:39:52 62° W 10:43:36 10° S visible
22 Oct 6.6 00:29:17 10° W 00:30:50 12° WNW 00:32:22 10° NW visible
22 Oct 3.0 10:22:06 10° N 10:25:54 76° W 10:29:41 10° S visible
23 Oct 6.4 00:14:42 10° WSW 00:16:47 14° WNW 00:18:53 10° NW visible
23 Oct 3.1 10:08:07 10° N 10:11:57 89° ESE 10:15:44 10° S visible
24 Oct 6.3 00:00:16 10° WSW 00:02:46 16° WNW 00:05:15 10° NNW visible
24 Oct 3.3 09:54:09 10° N 09:57:58 75° E 10:01:45 10° SSE visible
24 Oct 6.2 23:45:56 10° WSW 23:48:44 19° WNW 23:51:33 10° NNW visible
25 Oct 3.6 09:44:15 59° ESE 09:44:15 59° ESE 09:47:44 10° SSE visible
25 Oct 5.9 23:31:39 10° SW 23:34:43 22° WNW 23:37:47 10° NNW visible
26 Oct 5.8 09:33:11 13° SSE 09:33:11 13° SSE 09:33:42 10° SSE visible
26 Oct 5.7 23:17:26 10° SW 23:20:42 26° WNW 23:23:58 10° NNW visible
